Location: Newark
(46.3150°N, 5.9081°E)
Time: 01:15:12
(UTC+00:00)

ISS - Visible Passes

Search period start: 20 September 2019 00:00
Search period end: 30 September 2019 00:00
Orbit: 411 x 421 km, 51.6° (Epoch: 20 September)

Date Brightness Start Highest point End Pass type
(mag) Time Alt. Az. Time Alt. Az. Time Alt. Az.
20 Sep -3.7 19:23:18 10° SW 19:26:21 59° S 19:26:21 59° S visible
21 Sep -3.2 18:35:04 10° SSW 18:38:10 39° SE 18:40:14 18° E visible
21 Sep -1.4 20:11:40 10° W 20:13:09 23° W 20:13:09 23° W visible
22 Sep -3.5 19:23:01 10° WSW 19:26:20 63° NNW 19:26:52 53° NNE visible
23 Sep -3.8 18:34:29 10° WSW 18:37:48 89° SSE 18:40:26 15° ENE visible
23 Sep -1.3 20:11:44 10° WNW 20:13:20 22° WNW 20:13:20 22° WNW visible
24 Sep -2.7 19:23:01 10° W 19:26:10 39° NNW 19:26:48 35° NNE visible
25 Sep -3.0 18:34:18 10° W 18:37:32 49° NNW 18:40:11 14° NE visible
25 Sep -1.1 20:11:44 10° WNW 20:13:05 20° NW 20:13:05 20° NW visible
26 Sep -2.4 19:23:01 10° WNW 19:26:03 31° N 19:26:24 31° N visible
27 Sep -2.5 18:34:17 10° WNW 18:37:22 34° N 18:39:41 15° NE visible
27 Sep -0.9 20:11:30 10° WNW 20:12:34 18° NW 20:12:34 18° NW visible
28 Sep -2.4 19:22:52 10° WNW 19:25:48 32° N 19:25:48 32° N visible
29 Sep -2.4 18:34:11 10° WNW 18:37:12 31° N 18:39:02 18° NE visible
29 Sep -0.7 20:11:04 10° WNW 20:11:55 16° NW 20:11:55 16° NW visible
